| time (UTC) | temp C | wind direction | speed KPH | gust KPH | rain 1hr cm | rain 24hr cm | rain mn cm | humidity % | barometer mb |
| 20260502164057 | 12 | 268 | 6.4 | 20.9 | 0.00 | 0.03 | 0.00 | 47 | 1017.5 |
| 20260502163557 | 12 | 242 | 4.8 | 16.1 | 0.00 | 0.03 | 0.00 | 48 | 1017.5 |
| 20260502163101 | 12 | 355 | 4.8 | 16.1 | 0.00 | 0.03 | 0.00 | 49 | 1017.6 |
| 20260502162557 | 12 | 360 | 8.0 | 19.3 | 0.00 | 0.03 | 0.00 | 48 | 1017.6 |
| 20260502162057 | 12 | 65 | 6.4 | 19.3 | 0.00 | 0.03 | 0.00 | 48 | 1017.7 |
| 20260502161623 | 12 | 309 | 6.4 | 17.7 | 0.00 | 0.03 | 0.00 | 49 | 1017.6 |
| 20260502161057 | 12 | 265 | 6.4 | 16.1 | 0.00 | 0.03 | 0.00 | 49 | 1017.8 |
| 20260502160556 | 12 | 289 | 6.4 | 16.1 | 0.00 | 0.03 | 0.00 | 50 | 1018.0 |
| 20260502152059 | 11 | 281 | 4.8 | 12.9 | 0.00 | 0.03 | 0.00 | 53 | 1018.0 |
| 20260502151605 | 11 | 322 | 3.2 | 17.7 | 0.00 | 0.03 | 0.00 | 54 | 1017.9 |
| 20260502151056 | 11 | 332 | 6.4 | 17.7 | 0.00 | 0.03 | 0.00 | 56 | 1017.9 |
| 20260502150557 | 11 | 355 | 4.8 | 17.7 | 0.00 | 0.03 | 0.00 | 53 | 1018.0 |
| 20260502130556 | 7 | 17 | 0.0 | 8.0 | 0.00 | 0.03 | 0.00 | 87 | 1018.2 |
| 20260502123556 | 5 | 0 | 0.0 | 1.6 | 0.00 | 0.03 | 0.00 | 93 | 1018.0 |
| 20260502123056 | 4 | 0 | 0.0 | 1.6 | 0.00 | 0.03 | 0.00 | 94 | 1018.0 |
| 20260502122557 | 4 | 0 | 0.0 | 1.6 | 0.00 | 0.03 | 0.00 | 93 | 1018.1 |
| 20260502122056 | 3 | 0 | 0.0 | 0.0 | 0.00 | 0.03 | 0.00 | 94 | 1018.1 |
| 20260502121559 | 3 | 0 | 0.0 | 0.0 | 0.00 | 0.03 | 0.00 | 93 | 1018.0 |
| 20260502121057 | 3 | 0 | 0.0 | 1.6 | 0.00 | 0.03 | 0.00 | 93 | 1018.0 |
| 20260502120558 | 3 | 0 | 0.0 | 1.6 | 0.00 | 0.03 | 0.00 | 93 | 1018.1 |
| 20260502115556 | 3 | 0 | 0.0 | 0.0 | 0.00 | 0.03 | 0.00 | 93 | 1018.1 |
| 20260502115059 | 3 | 0 | 0.0 | 0.0 | 0.00 | 0.03 | 0.00 | 93 | 1018.1 |
| 20260502114557 | 3 | 0 | 0.0 | 0.0 | 0.00 | 0.03 | 0.00 | 93 | 1018.1 |
| 20260502114059 | 3 | 0 | 0.0 | 3.2 | 0.00 | 0.03 | 0.00 | 93 | 1018.1 |
| 20260502113556 | 3 | 0 | 0.0 | 4.8 | 0.00 | 0.03 | 0.00 | 93 | 1018.1 |
| 20260502113054 | 2 | 333 | 0.0 | 4.8 | 0.00 | 0.03 | 0.00 | 93 | 1018.2 |
| 20260502112555 | 2 | 333 | 0.0 | 4.8 | 0.00 | 0.03 | 0.00 | 93 | 1018.3 |
| 20260502112055 | 2 | 0 | 0.0 | 4.8 | 0.00 | 0.03 | 0.00 | 93 | 1018.2 |
| 20260502111602 | 2 | 346 | 0.0 | 4.8 | 0.00 | 0.03 | 0.00 | 93 | 1018.1 |
| 20260502111055 | 3 | 278 | 0.0 | 4.8 | 0.00 | 0.03 | 0.00 | 93 | 1018.2 |
| 20260502110557 | 3 | 0 | 0.0 | 3.2 | 0.00 | 0.03 | 0.00 | 93 | 1018.0 |
| 20260502110058 | 3 | 278 | 0.0 | 3.2 | 0.00 | 0.03 | 0.00 | 93 | 1018.0 |
| 20260502105558 | 3 | 0 | 0.0 | 1.6 | 0.00 | 0.03 | 0.00 | 93 | 1017.9 |
| 20260502105057 | 3 | 0 | 0.0 | 1.6 | 0.00 | 0.03 | 0.00 | 93 | 1017.6 |
| 20260502104556 | 3 | 0 | 0.0 | 1.6 | 0.00 | 0.03 | 0.00 | 93 | 1017.7 |
| 20260502104056 | 3 | 0 | 0.0 | 1.6 | 0.00 | 0.03 | 0.00 | 93 | 1017.8 |
| 20260502103558 | 3 | 0 | 0.0 | 0.0 | 0.00 | 0.03 | 0.00 | 93 | 1018.0 |
| 20260502103056 | 3 | 0 | 0.0 | 1.6 | 0.00 | 0.03 | 0.00 | 93 | 1018.1 |
| 20260502102557 | 3 | 0 | 0.0 | 1.6 | 0.00 | 0.03 | 0.00 | 93 | 1018.1 |
| 20260502102056 | 3 | 0 | 0.0 | 1.6 | 0.00 | 0.03 | 0.00 | 93 | 1018.1 |
| 20260502101555 | 3 | 0 | 0.0 | 1.6 | 0.00 | 0.03 | 0.00 | 93 | 1018.1 |
| 20260502101055 | 3 | 0 | 0.0 | 1.6 | 0.00 | 0.03 | 0.00 | 93 | 1018.2 |
| 20260502100556 | 3 | 0 | 0.0 | 0.0 | 0.00 | 0.03 | 0.00 | 93 | 1018.2 |
| 20260502091056 | 3 | 52 | 0.0 | 3.2 | 0.00 | 0.03 | 0.00 | 92 | 1018.1 |
| 20260502090558 | 2 | 0 | 0.0 | 1.6 | 0.00 | 0.03 | 0.00 | 92 | 1018.2 |
| 20260502090114 | 2 | 0 | 0.0 | 3.2 | 0.00 | 0.03 | 0.00 | 92 | 1018.3 |
| 20260502071057 | 3 | 0 | 0.0 | 3.2 | 0.00 | 0.03 | 0.00 | 92 | 1017.6 |
| 20260502070556 | 3 | 0 | 0.0 | 1.6 | 0.00 | 0.03 | 0.00 | 92 | 1017.6 |
| 20260502070109 | 3 | 0 | 0.0 | 3.2 | 0.00 | 0.03 | 0.00 | 91 | 1017.7 |
| 20260502065556 | 2 | 0 | 0.0 | 3.2 | 0.00 | 0.03 | 0.00 | 91 | 1017.9 |
| 20260502065056 | 2 | 0 | 0.0 | 3.2 | 0.00 | 0.03 | 0.00 | 91 | 1018.0 |
| 20260502064557 | 2 | 0 | 0.0 | 1.6 | 0.00 | 0.03 | 0.00 | 91 | 1017.9 |
| 20260502064056 | 2 | 0 | 0.0 | 1.6 | 0.00 | 0.03 | 0.00 | 91 | 1017.9 |
| 20260502063556 | 3 | 0 | 0.0 | 0.0 | 0.00 | 0.03 | 0.00 | 91 | 1017.9 |
| 20260502063057 | 3 | 0 | 0.0 | 0.0 | 0.00 | 0.03 | 0.00 | 91 | 1018.1 |
| 20260502062556 | 3 | 0 | 0.0 | 0.0 | 0.00 | 0.03 | 0.00 | 91 | 1018.2 |
| 20260502062056 | 3 | 0 | 0.0 | 1.6 | 0.00 | 0.03 | 0.00 | 91 | 1018.2 |
| 20260502061557 | 2 | 0 | 0.0 | 1.6 | 0.00 | 0.03 | 0.00 | 91 | 1018.3 |
| 20260502061055 | 2 | 0 | 0.0 | 1.6 | 0.00 | 0.03 | 0.00 | 91 | 1018.3 |
| 20260502060559 | 2 | 0 | 0.0 | 3.2 | 0.00 | 0.03 | 0.00 | 90 | 1018.3 |
| 20260502060055 | 2 | 0 | 0.0 | 3.2 | 0.00 | 0.03 | 0.00 | 91 | 1018.4 |
| 20260502055557 | 2 | 0 | 0.0 | 3.2 | 0.00 | 0.03 | 0.00 | 91 | 1018.4 |
| 20260502055056 | 2 | 0 | 0.0 | 1.6 | 0.00 | 0.03 | 0.00 | 91 | 1018.3 |
| 20260502054556 | 2 | 322 | 0.0 | 1.6 | 0.00 | 0.03 | 0.00 | 90 | 1018.5 |
| 20260502054056 | 2 | 0 | 0.0 | 1.6 | 0.00 | 0.03 | 0.00 | 90 | 1018.6 |
| 20260502053559 | 2 | 0 | 0.0 | 0.0 | 0.00 | 0.03 | 0.00 | 90 | 1018.4 |
| 20260502053124 | 2 | 0 | 0.0 | 0.0 | 0.00 | 0.03 | 0.00 | 90 | 1018.4 |
| 20260502052557 | 2 | 0 | 0.0 | 0.0 | 0.00 | 0.03 | 0.00 | 90 | 1018.4 |
| 20260502052100 | 2 | 0 | 0.0 | 0.0 | 0.00 | 0.03 | 0.00 | 90 | 1018.5 |
| 20260502051614 | 2 | 0 | 0.0 | 1.6 | 0.00 | 0.03 | 0.00 | 89 | 1018.3 |
| 20260502051100 | 2 | 0 | 0.0 | 3.2 | 0.00 | 0.03 | 0.00 | 90 | 1018.3 |
| 20260502050601 | 2 | 322 | 0.0 | 3.2 | 0.00 | 0.03 | 0.00 | 90 | 1018.3 |
| 20260502050059 | 2 | 0 | 0.0 | 0.0 | 0.00 | 0.03 | 0.00 | 89 | 1018.4 |
| 20260502045557 | 2 | 0 | 0.0 | 0.0 | 0.00 | 0.03 | 0.00 | 89 | 1018.5 |
| 20260502045059 | 2 | 0 | 0.0 | 1.6 | 0.00 | 0.03 | 0.00 | 89 | 1018.5 |
| 20260502044557 | 2 | 0 | 0.0 | 1.6 | 0.00 | 0.03 | 0.00 | 89 | 1018.7 |
| 20260502044059 | 2 | 0 | 0.0 | 1.6 | 0.00 | 0.03 | 0.00 | 89 | 1018.5 |
| 20260502043557 | 3 | 0 | 0.0 | 0.0 | 0.00 | 0.03 | 0.00 | 89 | 1018.5 |
| 20260502043111 | 3 | 0 | 0.0 | 0.0 | 0.00 | 0.03 | 0.00 | 89 | 1018.5 |
| 20260502042558 | 3 | 0 | 0.0 | 0.0 | 0.00 | 0.03 | 0.00 | 89 | 1018.5 |
| 20260502042058 | 3 | 0 | 0.0 | 1.6 | 0.00 | 0.03 | 0.00 | 89 | 1018.4 |
| 20260502041626 | 3 | 0 | 0.0 | 1.6 | 0.00 | 0.03 | 0.00 | 88 | 1018.5 |
| 20260502041057 | 3 | 0 | 0.0 | 0.0 | 0.00 | 0.03 | 0.00 | 88 | 1018.5 |
| 20260502040557 | 3 | 0 | 0.0 | 0.0 | 0.00 | 0.03 | 0.00 | 88 | 1018.5 |
| 20260502040058 | 3 | 0 | 0.0 | 0.0 | 0.00 | 0.03 | 0.00 | 88 | 1018.4 |
| 20260502035557 | 3 | 0 | 0.0 | 0.0 | 0.00 | 0.03 | 0.03 | 88 | 1018.3 |
| 20260502035057 | 3 | 0 | 0.0 | 1.6 | 0.00 | 0.03 | 0.03 | 88 | 1018.4 |
| 20260502034601 | 3 | 0 | 0.0 | 1.6 | 0.00 | 0.03 | 0.03 | 88 | 1018.4 |
| 20260502034056 | 3 | 0 | 0.0 | 1.6 | 0.00 | 0.03 | 0.03 | 88 | 1018.3 |
| 20260502033559 | 3 | 0 | 0.0 | 0.0 | 0.00 | 0.03 | 0.03 | 88 | 1018.3 |
| 20260502033109 | 3 | 0 | 0.0 | 0.0 | 0.00 | 0.03 | 0.03 | 87 | 1018.3 |
| 20260502032557 | 3 | 0 | 0.0 | 0.0 | 0.00 | 0.03 | 0.03 | 87 | 1018.2 |
| 20260502032057 | 3 | 0 | 0.0 | 1.6 | 0.00 | 0.03 | 0.03 | 87 | 1018.4 |
| 20260502031556 | 4 | 0 | 0.0 | 1.6 | 0.00 | 0.03 | 0.03 | 86 | 1018.4 |
| 20260502031058 | 4 | 0 | 0.0 | 1.6 | 0.00 | 0.03 | 0.03 | 86 | 1018.3 |
| 20260502030558 | 4 | 0 | 0.0 | 0.0 | 0.00 | 0.03 | 0.03 | 86 | 1018.4 |
| 20260502030058 | 4 | 0 | 0.0 | 0.0 | 0.00 | 0.03 | 0.03 | 86 | 1018.5 |
| 20260502025557 | 4 | 0 | 0.0 | 0.0 | 0.00 | 0.03 | 0.03 | 85 | 1018.5 |
| 20260502025057 | 5 | 0 | 0.0 | 0.0 | 0.00 | 0.03 | 0.03 | 85 | 1018.5 |
| 20260502024557 | 5 | 0 | 0.0 | 0.0 | 0.00 | 0.03 | 0.03 | 85 | 1018.4 |
| 20260502024058 | 5 | 0 | 0.0 | 0.0 | 0.00 | 0.03 | 0.03 | 85 | 1018.3 |
| 20260502023559 | 5 | 0 | 0.0 | 1.6 | 0.00 | 0.03 | 0.03 | 84 | 1018.2 |
| 20260502023059 | 5 | 0 | 0.0 | 1.6 | 0.00 | 0.03 | 0.03 | 84 | 1018.1 |
| 20260502022556 | 5 | 0 | 0.0 | 1.6 | 0.00 | 0.03 | 0.03 | 84 | 1017.8 |
| 20260502022056 | 5 | 0 | 0.0 | 0.0 | 0.00 | 0.03 | 0.03 | 84 | 1017.9 |
| 20260502021557 | 5 | 0 | 0.0 | 0.0 | 0.00 | 0.03 | 0.03 | 83 | 1017.9 |
| 20260502021056 | 6 | 0 | 0.0 | 0.0 | 0.00 | 0.03 | 0.03 | 83 | 1017.7 |
| 20260502020558 | 6 | 0 | 0.0 | 0.0 | 0.00 | 0.03 | 0.03 | 82 | 1017.7 |
| 20260502020106 | 6 | 0 | 0.0 | 0.0 | 0.00 | 0.03 | 0.03 | 81 | 1017.6 |
| 20260502015556 | 6 | 0 | 0.0 | 0.0 | 0.00 | 0.03 | 0.03 | 80 | 1017.3 |
| 20260502015056 | 6 | 0 | 0.0 | 0.0 | 0.00 | 0.03 | 0.03 | 79 | 1017.4 |
| 20260502014557 | 6 | 0 | 0.0 | 0.0 | 0.00 | 0.03 | 0.03 | 77 | 1017.4 |
| 20260502014056 | 7 | 0 | 0.0 | 0.0 | 0.00 | 0.03 | 0.03 | 75 | 1017.3 |
| 20260502013557 | 7 | 0 | 0.0 | 0.0 | 0.00 | 0.03 | 0.03 | 75 | 1017.3 |
| 20260502013056 | 7 | 0 | 0.0 | 0.0 | 0.00 | 0.03 | 0.03 | 74 | 1017.3 |
| 20260502012559 | 7 | 0 | 0.0 | 0.0 | 0.00 | 0.03 | 0.03 | 73 | 1017.1 |
| 20260502012056 | 7 | 0 | 0.0 | 1.6 | 0.00 | 0.03 | 0.03 | 72 | 1017.1 |
| 20260502011603 | 8 | 0 | 0.0 | 4.8 | 0.00 | 0.03 | 0.03 | 71 | 1016.9 |
| 20260502011057 | 8 | 0 | 0.0 | 4.8 | 0.00 | 0.03 | 0.03 | 70 | 1016.7 |
| 20260502010558 | 8 | 0 | 0.0 | 4.8 | 0.00 | 0.03 | 0.03 | 69 | 1016.6 |
| 20260502005556 | 8 | 9 | 0.0 | 4.8 | 0.00 | 0.03 | 0.03 | 68 | 1016.4 |
| 20260502005056 | 8 | 0 | 0.0 | 6.4 | 0.00 | 0.03 | 0.03 | 68 | 1016.3 |
| 20260502004555 | 8 | 0 | 1.6 | 6.4 | 0.00 | 0.03 | 0.03 | 68 | 1016.2 |
| 20260502004057 | 9 | 0 | 0.0 | 9.7 | 0.00 | 0.03 | 0.03 | 67 | 1016.2 |
| 20260502003556 | 9 | 349 | 1.6 | 11.3 | 0.00 | 0.03 | 0.03 | 66 | 1016.1 |
| 20260502003055 | 10 | 33 | 3.2 | 14.5 | 0.00 | 0.03 | 0.03 | 66 | 1015.9 |
| 20260502002557 | 10 | 316 | 4.8 | 16.1 | 0.00 | 0.03 | 0.03 | 66 | 1016.0 |
| 20260502002056 | 10 | 315 | 3.2 | 16.1 | 0.00 | 0.03 | 0.03 | 66 | 1016.3 |
| 20260502001602 | 10 | 315 | 3.2 | 17.7 | 0.00 | 0.03 | 0.03 | 65 | 1016.1 |
| 20260502001057 | 10 | 5 | 8.0 | 17.7 | 0.00 | 0.03 | 0.03 | 65 | 1015.8 |
| 20260502000556 | 10 | 321 | 3.2 | 17.7 | 0.00 | 0.03 | 0.03 | 66 | 1015.6 |
| 20260502000058 | 11 | 5 | 4.8 | 17.7 | 0.00 | 0.03 | 0.03 | 65 | 1015.3 |
| 20260501235559 | 11 | 345 | 8.0 | 22.5 | 0.00 | 0.03 | 0.03 | 64 | 1015.1 |
| 20260501235056 | 11 | 360 | 6.4 | 22.5 | 0.00 | 0.03 | 0.03 | 64 | 1015.0 |
| 20260501234557 | 11 | 311 | 6.4 | 16.1 | 0.00 | 0.03 | 0.03 | 64 | 1015.0 |
| 20260501234056 | 11 | 360 | 4.8 | 16.1 | 0.00 | 0.03 | 0.03 | 63 | 1014.8 |
| 20260501233556 | 11 | 339 | 3.2 | 16.1 | 0.00 | 0.03 | 0.03 | 63 | 1014.7 |
| 20260501233106 | 11 | 129 | 4.8 | 16.1 | 0.00 | 0.03 | 0.03 | 63 | 1014.6 |
| 20260501232555 | 11 | 285 | 4.8 | 12.9 | 0.00 | 0.03 | 0.03 | 63 | 1014.7 |
| 20260501232057 | 11 | 319 | 4.8 | 16.1 | 0.00 | 0.03 | 0.03 | 63 | 1014.5 |
| 20260501231621 | 12 | 232 | 4.8 | 17.7 | 0.00 | 0.03 | 0.03 | 64 | 1014.7 |
| 20260501231056 | 12 | 291 | 6.4 | 17.7 | 0.00 | 0.03 | 0.03 | 64 | 1014.6 |
| 20260501230556 | 12 | 273 | 3.2 | 19.3 | 0.00 | 0.03 | 0.03 | 65 | 1014.6 |
| 20260501230055 | 12 | 283 | 8.0 | 19.3 | 0.00 | 0.03 | 0.03 | 65 | 1014.5 |
| 20260501225556 | 12 | 346 | 8.0 | 17.7 | 0.00 | 0.03 | 0.03 | 65 | 1014.4 |
| 20260501225058 | 12 | 12 | 4.8 | 17.7 | 0.00 | 0.03 | 0.03 | 66 | 1014.4 |
| 20260501224558 | 12 | 308 | 4.8 | 14.5 | 0.00 | 0.03 | 0.03 | 68 | 1014.3 |
| 20260501224059 | 12 | 295 | 4.8 | 14.5 | 0.00 | 0.03 | 0.03 | 68 | 1014.4 |
| 20260501223600 | 12 | 332 | 3.2 | 14.5 | 0.00 | 0.03 | 0.03 | 69 | 1014.2 |
| 20260501223117 | 12 | 307 | 1.6 | 14.5 | 0.00 | 0.03 | 0.03 | 68 | 1014.4 |
| 20260501222556 | 12 | 329 | 4.8 | 16.1 | 0.00 | 0.03 | 0.03 | 67 | 1014.2 |
| 20260501222056 | 13 | 321 | 6.4 | 19.3 | 0.00 | 0.03 | 0.03 | 67 | 1014.0 |
| 20260501221556 | 13 | 254 | 4.8 | 19.3 | 0.00 | 0.03 | 0.03 | 66 | 1014.0 |
| 20260501221056 | 13 | 5 | 6.4 | 19.3 | 0.00 | 0.03 | 0.03 | 65 | 1014.0 |
| 20260501220556 | 13 | 342 | 6.4 | 17.7 | 0.00 | 0.03 | 0.03 | 66 | 1014.1 |
| 20260501220100 | 13 | 343 | 6.4 | 17.7 | 0.00 | 0.03 | 0.03 | 69 | 1014.1 |
| 20260501215556 | 13 | 211 | 3.2 | 11.3 | 0.00 | 0.03 | 0.03 | 71 | 1014.2 |
| 20260501215059 | 12 | 18 | 3.2 | 11.3 | 0.00 | 0.03 | 0.03 | 72 | 1014.0 |
| 20260501214557 | 12 | 298 | 1.6 | 6.4 | 0.00 | 0.03 | 0.03 | 74 | 1014.2 |
| 20260501214055 | 11 | 284 | 1.6 | 6.4 | 0.00 | 0.03 | 0.03 | 73 | 1014.0 |
| 20260501213555 | 11 | 257 | 1.6 | 6.4 | 0.00 | 0.03 | 0.03 | 74 | 1014.2 |
| 20260501213100 | 11 | 280 | 1.6 | 11.3 | 0.00 | 0.03 | 0.03 | 74 | 1014.0 |
| 20260501212556 | 11 | 292 | 1.6 | 11.3 | 0.00 | 0.03 | 0.03 | 74 | 1013.8 |
| 20260501212056 | 11 | 323 | 4.8 | 11.3 | 0.00 | 0.03 | 0.03 | 73 | 1013.9 |
| 20260501211558 | 11 | 305 | 1.6 | 9.7 | 0.00 | 0.03 | 0.03 | 74 | 1013.9 |
| 20260501211055 | 11 | 40 | 3.2 | 9.7 | 0.00 | 0.03 | 0.03 | 74 | 1014.0 |
| 20260501210556 | 11 | 311 | 0.0 | 6.4 | 0.00 | 0.03 | 0.03 | 75 | 1013.9 |
| 20260501210058 | 11 | 0 | 0.0 | 6.4 | 0.00 | 0.03 | 0.03 | 75 | 1013.9 |
| 20260501205556 | 11 | 313 | 1.6 | 8.0 | 0.00 | 0.03 | 0.03 | 74 | 1014.0 |
| 20260501205055 | 11 | 319 | 1.6 | 17.7 | 0.00 | 0.03 | 0.03 | 74 | 1013.8 |
| 20260501204614 | 11 | 305 | 4.8 | 17.7 | 0.00 | 0.03 | 0.03 | 74 | 1013.9 |
| 20260501204055 | 11 | 355 | 1.6 | 12.9 | 0.00 | 0.03 | 0.03 | 74 | 1013.9 |
| 20260501203556 | 11 | 279 | 3.2 | 14.5 | 0.00 | 0.03 | 0.03 | 74 | 1014.0 |
| 20260501203056 | 11 | 307 | 4.8 | 14.5 | 0.00 | 0.03 | 0.03 | 73 | 1014.0 |
| 20260501202556 | 11 | 311 | 3.2 | 12.9 | 0.00 | 0.03 | 0.03 | 73 | 1014.0 |
| 20260501202058 | 12 | 327 | 3.2 | 11.3 | 0.00 | 0.03 | 0.03 | 73 | 1014.0 |
| 20260501201607 | 12 | 304 | 4.8 | 11.3 | 0.00 | 0.03 | 0.03 | 73 | 1013.9 |
| 20260501201056 | 12 | 277 | 4.8 | 17.7 | 0.03 | 0.03 | 0.03 | 73 | 1013.9 |
| 20260501200556 | 12 | 321 | 4.8 | 22.5 | 0.03 | 0.03 | 0.03 | 73 | 1013.9 |
| 20260501200057 | 12 | 297 | 8.0 | 22.5 | 0.03 | 0.03 | 0.03 | 74 | 1013.8 |
| 20260501195557 | 12 | 306 | 4.8 | 22.5 | 0.03 | 0.03 | 0.03 | 73 | 1013.9 |
| 20260501195056 | 12 | 319 | 8.0 | 22.5 | 0.03 | 0.03 | 0.03 | 73 | 1013.7 |
| 20260501194556 | 12 | 319 | 6.4 | 22.5 | 0.03 | 0.03 | 0.03 | 74 | 1013.8 |
| 20260501194055 | 13 | 311 | 8.0 | 22.5 | 0.03 | 0.03 | 0.03 | 72 | 1013.7 |
| 20260501193558 | 13 | 172 | 4.8 | 14.5 | 0.03 | 0.03 | 0.03 | 74 | 1013.6 |
| 20260501193054 | 13 | 265 | 3.2 | 6.4 | 0.03 | 0.03 | 0.03 | 74 | 1013.5 |
| 20260501192601 | 13 | 309 | 1.6 | 6.4 | 0.03 | 0.03 | 0.03 | 74 | 1013.5 |
| 20260501192057 | 13 | 314 | 3.2 | 11.3 | 0.03 | 0.03 | 0.03 | 74 | 1013.5 |
| 20260501191600 | 12 | 265 | 1.6 | 11.3 | 0.03 | 0.03 | 0.03 | 75 | 1013.5 |
| 20260501191057 | 12 | 326 | 1.6 | 4.8 | 0.00 | 0.00 | 0.00 | 75 | 1013.6 |
| 20260501190556 | 12 | 0 | 0.0 | 14.5 | 0.00 | 0.00 | 0.00 | 75 | 1013.7 |
| 20260501190057 | 12 | 9 | 1.6 | 14.5 | 0.00 | 0.00 | 0.00 | 74 | 1013.5 |
| 20260501185556 | 13 | 328 | 3.2 | 16.1 | 0.00 | 0.00 | 0.00 | 70 | 1013.4 |
| 20260501185056 | 13 | 317 | 4.8 | 16.1 | 0.00 | 0.00 | 0.00 | 68 | 1013.4 |
| 20260501184603 | 13 | 276 | 4.8 | 14.5 | 0.00 | 0.00 | 0.00 | 66 | 1013.4 |
| 20260501184056 | 14 | 342 | 1.6 | 11.3 | 0.00 | 0.00 | 0.00 | 64 | 1013.1 |
| 20260501183601 | 14 | 25 | 1.6 | 8.0 | 0.00 | 0.00 | 0.00 | 64 | 1012.9 |
| 20260501183103 | 14 | 300 | 1.6 | 9.7 | 0.00 | 0.00 | 0.00 | 62 | 1012.9 |
| 20260501182556 | 15 | 304 | 1.6 | 9.7 | 0.00 | 0.00 | 0.00 | 61 | 1012.7 |
| 20260501182056 | 15 | 320 | 4.8 | 9.7 | 0.00 | 0.00 | 0.00 | 57 | 1012.8 |
| 20260501181600 | 15 | 237 | 3.2 | 14.5 | 0.00 | 0.00 | 0.00 | 55 | 1012.7 |
| 20260501181100 | 15 | 314 | 3.2 | 14.5 | 0.00 | 0.00 | 0.00 | 55 | 1012.7 |
| 20260501180556 | 15 | 273 | 3.2 | 12.9 | 0.00 | 0.00 | 0.00 | 53 | 1012.6 |
| 20260501175600 | 16 | 251 | 1.6 | 8.0 | 0.00 | 0.00 | 0.00 | 50 | 1012.5 |
| 20260501175057 | 16 | 315 | 3.2 | 17.7 | 0.00 | 0.00 | 0.00 | 53 | 1012.5 |
| 20260501174608 | 16 | 246 | 4.8 | 17.7 | 0.00 | 0.00 | 0.00 | 50 | 1012.6 |
| 20260501174057 | 16 | 269 | 6.4 | 12.9 | 0.00 | 0.00 | 0.00 | 50 | 1012.8 |
| 20260501173556 | 16 | 296 | 3.2 | 14.5 | 0.00 | 0.00 | 0.00 | 50 | 1012.8 |
| 20260501173054 | 16 | 273 | 3.2 | 14.5 | 0.00 | 0.00 | 0.00 | 51 | 1012.8 |
| 20260501172556 | 16 | 232 | 1.6 | 14.5 | 0.00 | 0.00 | 0.00 | 52 | 1012.7 |
| 20260501172058 | 16 | 142 | 4.8 | 14.5 | 0.00 | 0.00 | 0.00 | 52 | 1012.7 |
| 20260501171556 | 17 | 236 | 4.8 | 14.5 | 0.00 | 0.00 | 0.00 | 52 | 1012.9 |